sat.trackr.live / text

‹ back to catalog

STARLINK-31256

NORAD 59161 · 2024-044K

PAYLOAD ACTIVE UNKNOWN

§ Identity

Operator
Country
US
Launch date
2024-03-04
Launch site
AFETR
Launch vehicle
Mass (kg)
RCS (m²)

Purposes: comms

External: N2YO · Heavens-Above · Gunter

§ Orbital elements

Epoch: 2026-09-19T22:00:27.828000Z

Period
94.27 min
Inclination
43.0039°
Eccentricity
0.0001466
Mean motion
15.27582602 rev/d
Perigee alt
482.0 km
Apogee alt
484.0 km
Semi-major
6,861.2 km
B*
4.1098e-5
RAAN
89.8224°
Arg perigee
261.0608°
Mean anomaly
99.0078°
Rev number
14,330

§ Raw data

STARLINK-312561 59161U 24044K   26262.91698875  .00000869  00000+0  41098-4 0  99952 59161  43.0039  89.8224 0001466 261.0608  99.0078 15.27582602143308

JSON: /api/v1/satellites/59161 · /tle

For live sub-satellite position, see the globe view (requires WebGL).

§ Visibility from observer

Set your observer location to see the next 7 days of passes ≥ 10°. The values pass through the URL so the page stays shareable.

No JS? Fill the form by hand. The geolocation button needs JavaScript.